Location: Fort Wayne
(41.1310°N, 85.1290°W)
Time: 13:25:53
(UTC-04:00)

OPAL - Visible Passes

Search period start: 29 April 2017 00:00
Search period end: 09 May 2017 00:00
Orbit: 743 x 796 km, 100.2° (Epoch: 27 April)

Date Brightness Start Highest point End Pass type
(mag) Time Alt. Az. Time Alt. Az. Time Alt. Az.
29 Apr 10.1 06:10:24 10° NE 06:14:06 20° E 06:17:47 10° SE visible
02 May 10.3 06:03:20 10° NE 06:06:28 17° E 06:09:37 10° SE visible
05 May 10.4 05:56:30 10° ENE 05:58:50 13° E 06:01:11 10° ESE visible
08 May 10.8 05:50:32 10° E 05:51:12 10° E 05:51:51 10° E visible
